QPF
0.04 0.02 0.02 0.03 0.02 0.03 0.04 0.05 0.05 0.05 0.05 0.06 0.05 0.04 0.04 0.04 0.04 0.05 0.06 0.06 0.04 0.05 0.04 0.05 0.06 0.05 0.06 0.06 0.05 0.06 0.06 0.06 0.05 0.04 0.05 0.05 0.03 0.03 0.04 0.07 0.08 0.04 0.03
0.02 0.02 0.02 0.03 0.02 0.02 0.03 0.03 0.03 0.04 0.05 0.05 0.05 0.04 0.03 0.04 0.03 0.03 0.04 0.05 0.06 0.06 0.05 0.06 0.06 0.05 0.04 0.03 0.04 0.04 0.06 0.07 0.07 0.05 0.04 0.04 0.04 0.05 0.08 0.11 0.09 0.03 0.02
0.00 0.00 0.01 0.02 0.02 0.02 0.02 0.02 0.03 0.03 0.04 0.05 0.04 0.04 0.05 0.04 0.04 0.04 0.05 0.05 0.05 0.05 0.05 0.06 0.06 0.05 0.04 0.04 0.04 0.04 0.06 0.09 0.09 0.09 0.08 0.03 0.02 0.05 0.08 0.08 0.05 0.02 0.02
0.00 0.01 0.01 0.01 0.01 0.01 0.02 0.01 0.02 0.03 0.04 0.04 0.03 0.04 0.05 0.06 0.05 0.04 0.05 0.05 0.04 0.05 0.06 0.07 0.06 0.05 0.05 0.04 0.03 0.03 0.04 0.07 0.10 0.16 0.11 0.03 0.01 0.03 0.04 0.04 0.03 0.04 0.04
0.01 0.01 0.01 0.00 0.00 0.01 0.01 0.01 0.01 0.02 0.03 0.04 0.04 0.04 0.04 0.06 0.05 0.05 0.05 0.04 0.04 0.05 0.06 0.05 0.05 0.05 0.03 0.03 0.02 0.02 0.03 0.06 0.10 0.13 0.09 0.06 0.03 0.02 0.04 0.05 0.04 0.05 0.05
0.01 0.01 0.00 0.00 0.00 0.01 0.01 0.01 0.01 0.02 0.02 0.03 0.03 0.03 0.04 0.05 0.05 0.04 0.05 0.04 0.03 0.04 0.04 0.03 0.03 0.04 0.02 0.02 0.02 0.02 0.04 0.09 0.11 0.05 0.06 0.05 0.02 0.03 0.04 0.05 0.07 0.07 0.08
0.01 0.00 0.00 0.00 0.00 0.01 0.01 0.01 0.02 0.02 0.02 0.02 0.03 0.03 0.04 0.04 0.03 0.03 0.05 0.05 0.04 0.04 0.03 0.03 0.03 0.03 0.03 0.02 0.02 0.03 0.05 0.09 0.09 0.03 0.07 0.07 0.03 0.03 0.04 0.05 0.06 0.06 0.06
0.01 0.00 0.00 0.00 0.00 0.00 0.01 0.01 0.01 0.02 0.02 0.02 0.02 0.03 0.04 0.03 0.03 0.04 0.04 0.05 0.05 0.04 0.04 0.03 0.04 0.04 0.03 0.03 0.01 0.02 0.04 0.07 0.05 0.03 0.06 0.05 0.02 0.03 0.03 0.03 0.04 0.04 0.04
0.01 0.00 0.00 0.00 0.00 0.00 0.00 0.01 0.01 0.01 0.01 0.01 0.02 0.03 0.04 0.03 0.03 0.05 0.04 0.04 0.05 0.05 0.04 0.03 0.02 0.02 0.02 0.01 0.01 0.01 0.03 0.06 0.05 0.04 0.03 0.02 0.02 0.03 0.03 0.03 0.03 0.04 0.03
0.01 0.01 0.00 0.00 0.00 0.01 0.00 0.01 0.01 0.01 0.01 0.01 0.02 0.04 0.05 0.04 0.04 0.04 0.03 0.03 0.05 0.05 0.05 0.05 0.02 0.02 0.01 0.01 0.01 0.01 0.03 0.05 0.04 0.03 0.03 0.01 0.02 0.03 0.03 0.02 0.03 0.02 0.01
0.02 0.02 0.01 0.01 0.01 0.01 0.01 0.00 0.01 0.01 0.01 0.02 0.03 0.05 0.08 0.10 0.06 0.06 0.05 0.05 0.05 0.05 0.05 0.06 0.02 0.01 0.01 0.01 0.01 0.01 0.02 0.04 0.04 0.06 0.04 0.02 0.03 0.03 0.02 0.03 0.04 0.02 0.01
0.02 0.02 0.04 0.03 0.02 0.01 0.02 0.01 0.04 0.03 0.03 0.06 0.06 0.06 0.14 0.15 0.14 0.09 0.07 0.07 0.06 0.04 0.04 0.04 0.02 0.01 0.03 0.02 0.01 0.02 0.04 0.02 0.04 0.04 0.02 0.02 0.02 0.02 0.01 0.03 0.04 0.04 0.02
0.02 0.03 0.03 0.03 0.04 0.03 0.04 0.03 0.04 0.05 0.07 0.10 0.09 0.11 0.12 0.10 0.09 0.07 0.05 0.04 0.05 0.04 0.04 0.03 0.04 0.06 0.06 0.04 0.04 0.05 0.04 0.03 0.04 0.02 0.01 0.01 0.01 0.01 0.02 0.02 0.02 0.03 0.03
0.03 0.03 0.02 0.02 0.04 0.04 0.04 0.04 0.04 0.04 0.05 0.07 0.07 0.08 0.08 0.09 0.09 0.09 0.08 0.07 0.06 0.08 0.09 0.07 0.08 0.08 0.08 0.05 0.04 0.04 0.03 0.04 0.05 0.03 0.01 0.00 0.01 0.02 0.02 0.01 0.01 0.01 0.02
0.03 0.03 0.02 0.02 0.03 0.04 0.06 0.05 0.04 0.04 0.03 0.05 0.06 0.07 0.07 0.08 0.09 0.09 0.09 0.09 0.06 0.05 0.07 0.09 0.07 0.08 0.06 0.03 0.03 0.02 0.02 0.03 0.03 0.03 0.01 0.00 0.01 0.01 0.01 0.01 0.01 0.01 0.01
0.02 0.02 0.02 0.02 0.03 0.04 0.05 0.06 0.05 0.03 0.04 0.04 0.04 0.04 0.05 0.08 0.08 0.08 0.07 0.07 0.05 0.04 0.05 0.06 0.05 0.06 0.05 0.04 0.03 0.01 0.02 0.03 0.03 0.06 0.03 0.01 0.00 0.00 0.00 0.00 0.00 0.00 0.00
0.03 0.02 0.02 0.02 0.03 0.04 0.05 0.04 0.04 0.03 0.01 0.02 0.04 0.03 0.03 0.04 0.06 0.06 0.07 0.06 0.05 0.03 0.05 0.06 0.05 0.04 0.05 0.06 0.05 0.04 0.04 0.04 0.03 0.02 0.04 0.05 0.03 0.00 0.00 0.00 0.00 0.01 0.01
0.06 0.06 0.04 0.02 0.03 0.05 0.05 0.04 0.02 0.02 0.01 0.02 0.02 0.02 0.03 0.04 0.04 0.05 0.07 0.07 0.05 0.04 0.05 0.06 0.05 0.05 0.08 0.08 0.07 0.08 0.06 0.05 0.03 0.02 0.03 0.06 0.07 0.03 0.01 0.00 0.00 0.00 0.00
0.05 0.06 0.05 0.05 0.04 0.04 0.06 0.04 0.03 0.03 0.03 0.02 0.03 0.03 0.03 0.03 0.03 0.03 0.06 0.07 0.04 0.05 0.05 0.03 0.05 0.06 0.10 0.10 0.07 0.07 0.06 0.05 0.06 0.04 0.02 0.04 0.06 0.06 0.05 0.02 0.01 0.00 0.00
0.06 0.07 0.08 0.06 0.06 0.06 0.07 0.06 0.05 0.05 0.03 0.02 0.03 0.04 0.04 0.04 0.03 0.04 0.04 0.05 0.05 0.05 0.07 0.06 0.08 0.06 0.07 0.08 0.05 0.08 0.06 0.04 0.05 0.05 0.03 0.04 0.05 0.04 0.06 0.05 0.04 0.02 0.01
0.05 0.06 0.09 0.08 0.06 0.07 0.06 0.05 0.04 0.04 0.04 0.04 0.04 0.05 0.05 0.04 0.04 0.05 0.06 0.08 0.06 0.06 0.05 0.04 0.06 0.05 0.06 0.04 0.08 0.11 0.09 0.05 0.05 0.05 0.04 0.04 0.03 0.03 0.04 0.06 0.08 0.08 0.03
0.04 0.03 0.06 0.07 0.06 0.06 0.05 0.05 0.05 0.05 0.05 0.05 0.05 0.08 0.07 0.05 0.05 0.04 0.07 0.05 0.05 0.07 0.07 0.07 0.07 0.08 0.07 0.05 0.09 0.14 0.14 0.11 0.07 0.04 0.04 0.03 0.02 0.03 0.01 0.03 0.05 0.07 0.07
0.03 0.02 0.04 0.06 0.07 0.07 0.06 0.05 0.05 0.07 0.07 0.07 0.06 0.06 0.06 0.05 0.04 0.07 0.07 0.06 0.08 0.04 0.06 0.08 0.07 0.07 0.09 0.07 0.07 0.10 0.15 0.15 0.10 0.07 0.04 0.03 0.04 0.04 0.02 0.02 0.03 0.03 0.03
0.02 0.02 0.04 0.06 0.08 0.07 0.06 0.05 0.04 0.05 0.07 0.07 0.07 0.07 0.07 0.07 0.06 0.07 0.07 0.08 0.07 0.05 0.09 0.05 0.06 0.06 0.09 0.08 0.06 0.05 0.07 0.09 0.11 0.13 0.10 0.08 0.08 0.05 0.03 0.01 0.01 0.02 0.02
0.02 0.02 0.04 0.06 0.08 0.07 0.06 0.05 0.07 0.07 0.07 0.08 0.08 0.09 0.09 0.09 0.08 0.09 0.08 0.09 0.07 0.06 0.08 0.07 0.10 0.08 0.06 0.06 0.06 0.06 0.06 0.07 0.06 0.10 0.14 0.10 0.07 0.03 0.01 0.01 0.02 0.03 0.02
0.02 0.02 0.02 0.04 0.07 0.06 0.06 0.05 0.07 0.08 0.10 0.09 0.08 0.09 0.10 0.10 0.10 0.11 0.11 0.11 0.08 0.07 0.08 0.08 0.09 0.09 0.06 0.08 0.08 0.07 0.08 0.05 0.05 0.05 0.07 0.08 0.08 0.04 0.03 0.02 0.02 0.02 0.01
MSLP
1008.89 1008.97 1009.22 1009.64 1010.19 1010.78 1011.31 1011.74 1012.01 1012.14 1012.17 1012.15 1012.15 1012.21 1012.33 1012.53 1012.76 1012.98 1013.18 1013.32 1013.42 1013.47 1013.51 1013.54 1013.60 1013.67 1013.78 1013.91 1014.06 1014.23 1014.44 1014.69 1014.98 1015.32 1015.69 1016.08 1016.47 1016.84 1017.16 1017.43 1017.65 1017.80 1017.92
1008.81 1009.06 1009.47 1010.01 1010.61 1011.20 1011.70 1012.05 1012.24 1012.30 1012.29 1012.27 1012.30 1012.42 1012.61 1012.86 1013.13 1013.37 1013.55 1013.68 1013.75 1013.79 1013.83 1013.88 1013.95 1014.04 1014.16 1014.28 1014.41 1014.55 1014.71 1014.93 1015.19 1015.52 1015.90 1016.31 1016.72 1017.11 1017.45 1017.73 1017.93 1018.08 1018.18
1008.72 1009.14 1009.69 1010.33 1010.99 1011.58 1012.04 1012.33 1012.46 1012.48 1012.45 1012.45 1012.52 1012.68 1012.93 1013.21 1013.49 1013.72 1013.89 1013.99 1014.04 1014.07 1014.11 1014.18 1014.28 1014.40 1014.52 1014.64 1014.74 1014.84 1014.97 1015.15 1015.39 1015.71 1016.10 1016.53 1016.97 1017.37 1017.72 1018.00 1018.20 1018.34 1018.44
1008.63 1009.20 1009.87 1010.60 1011.30 1011.90 1012.33 1012.58 1012.68 1012.68 1012.66 1012.69 1012.80 1013.01 1013.28 1013.58 1013.86 1014.07 1014.20 1014.27 1014.30 1014.34 1014.40 1014.50 1014.63 1014.77 1014.90 1015.00 1015.08 1015.14 1015.24 1015.38 1015.62 1015.94 1016.34 1016.79 1017.24 1017.66 1018.00 1018.27 1018.46 1018.60 1018.71
1008.58 1009.25 1010.03 1010.83 1011.57 1012.17 1012.59 1012.82 1012.91 1012.91 1012.91 1012.98 1013.13 1013.37 1013.67 1013.97 1014.22 1014.40 1014.50 1014.55 1014.58 1014.63 1014.72 1014.86 1015.02 1015.18 1015.31 1015.39 1015.43 1015.46 1015.52 1015.65 1015.87 1016.21 1016.63 1017.10 1017.56 1017.98 1018.32 1018.57 1018.74 1018.87 1018.98
1008.56 1009.31 1010.16 1011.01 1011.78 1012.39 1012.81 1013.04 1013.13 1013.16 1013.19 1013.29 1013.49 1013.76 1014.06 1014.35 1014.58 1014.74 1014.82 1014.85 1014.89 1014.97 1015.09 1015.26 1015.45 1015.62 1015.73 1015.79 1015.79 1015.79 1015.82 1015.93 1016.16 1016.52 1016.96 1017.45 1017.92 1018.33 1018.65 1018.87 1019.02 1019.13 1019.24
1008.58 1009.38 1010.26 1011.15 1011.94 1012.56 1012.98 1013.22 1013.33 1013.39 1013.46 1013.61 1013.83 1014.12 1014.43 1014.71 1014.93 1015.06 1015.13 1015.17 1015.23 1015.34 1015.50 1015.70 1015.90 1016.06 1016.16 1016.17 1016.14 1016.09 1016.10 1016.21 1016.46 1016.83 1017.31 1017.81 1018.30 1018.69 1018.99 1019.17 1019.28 1019.37 1019.47
1008.61 1009.43 1010.33 1011.23 1012.02 1012.65 1013.08 1013.34 1013.48 1013.57 1013.69 1013.87 1014.13 1014.44 1014.76 1015.03 1015.23 1015.36 1015.43 1015.49 1015.58 1015.71 1015.90 1016.12 1016.32 1016.47 1016.53 1016.51 1016.43 1016.35 1016.34 1016.45 1016.72 1017.12 1017.63 1018.16 1018.65 1019.04 1019.31 1019.46 1019.53 1019.58 1019.66
1008.65 1009.46 1010.36 1011.25 1012.03 1012.66 1013.09 1013.37 1013.54 1013.68 1013.84 1014.07 1014.36 1014.69 1015.01 1015.28 1015.48 1015.61 1015.70 1015.77 1015.88 1016.05 1016.25 1016.48 1016.67 1016.79 1016.81 1016.74 1016.63 1016.53 1016.51 1016.64 1016.93 1017.37 1017.91 1018.47 1018.97 1019.36 1019.60 1019.72 1019.75 1019.77 1019.84
1008.68 1009.46 1010.33 1011.20 1011.96 1012.57 1013.01 1013.30 1013.51 1013.68 1013.89 1014.16 1014.49 1014.84 1015.17 1015.45 1015.66 1015.80 1015.90 1015.99 1016.12 1016.30 1016.51 1016.72 1016.89 1016.98 1016.97 1016.87 1016.73 1016.62 1016.61 1016.76 1017.09 1017.57 1018.14 1018.73 1019.25 1019.64 1019.87 1019.97 1019.98 1019.97 1020.01
1008.69 1009.44 1010.27 1011.09 1011.82 1012.40 1012.83 1013.13 1013.36 1013.58 1013.84 1014.15 1014.51 1014.89 1015.25 1015.54 1015.76 1015.91 1016.02 1016.13 1016.27 1016.44 1016.65 1016.84 1016.99 1017.05 1017.01 1016.89 1016.75 1016.66 1016.67 1016.85 1017.21 1017.73 1018.34 1018.95 1019.49 1019.89 1020.13 1020.22 1020.23 1020.21 1020.23
1008.71 1009.41 1010.19 1010.95 1011.62 1012.16 1012.57 1012.88 1013.13 1013.39 1013.69 1014.04 1014.44 1014.85 1015.23 1015.54 1015.78 1015.94 1016.06 1016.18 1016.32 1016.49 1016.67 1016.85 1016.97 1017.01 1016.97 1016.86 1016.74 1016.67 1016.73 1016.94 1017.34 1017.89 1018.52 1019.15 1019.70 1020.11 1020.37 1020.48 1020.49 1020.48 1020.49
1008.74 1009.40 1010.11 1010.79 1011.39 1011.89 1012.27 1012.57 1012.84 1013.13 1013.46 1013.85 1014.29 1014.72 1015.13 1015.46 1015.71 1015.89 1016.03 1016.15 1016.28 1016.44 1016.61 1016.77 1016.88 1016.92 1016.90 1016.82 1016.74 1016.72 1016.81 1017.07 1017.49 1018.05 1018.68 1019.31 1019.87 1020.30 1020.58 1020.72 1020.77 1020.77 1020.79
1008.80 1009.41 1010.04 1010.65 1011.18 1011.61 1011.96 1012.25 1012.53 1012.84 1013.20 1013.62 1014.07 1014.53 1014.95 1015.31 1015.58 1015.78 1015.93 1016.05 1016.19 1016.34 1016.50 1016.65 1016.77 1016.84 1016.84 1016.81 1016.79 1016.83 1016.97 1017.25 1017.67 1018.21 1018.83 1019.44 1019.99 1020.42 1020.73 1020.91 1020.99 1021.03 1021.08
1008.88 1009.44 1010.01 1010.54 1011.00 1011.37 1011.69 1011.96 1012.24 1012.56 1012.94 1013.37 1013.83 1014.30 1014.73 1015.09 1015.38 1015.60 1015.77 1015.92 1016.07 1016.22 1016.39 1016.55 1016.69 1016.79 1016.85 1016.88 1016.92 1017.01 1017.18 1017.47 1017.87 1018.38 1018.94 1019.50 1020.01 1020.44 1020.76 1020.98 1021.12 1021.21 1021.29
1008.96 1009.48 1009.99 1010.46 1010.86 1011.20 1011.49 1011.76 1012.03 1012.35 1012.72 1013.14 1013.60 1014.05 1014.47 1014.84 1015.15 1015.39 1015.59 1015.77 1015.94 1016.12 1016.31 1016.50 1016.67 1016.81 1016.93 1017.02 1017.12 1017.25 1017.45 1017.72 1018.08 1018.51 1018.99 1019.47 1019.92 1020.32 1020.64 1020.89 1021.08 1021.23 1021.36
1009.02 1009.52 1009.99 1010.41 1010.78 1011.10 1011.38 1011.65 1011.93 1012.24 1012.59 1012.98 1013.40 1013.82 1014.22 1014.58 1014.89 1015.17 1015.40 1015.62 1015.83 1016.05 1016.27 1016.50 1016.71 1016.90 1017.07 1017.22 1017.37 1017.53 1017.73 1017.97 1018.26 1018.60 1018.97 1019.34 1019.71 1020.05 1020.36 1020.63 1020.87 1021.08 1021.26
1009.03 1009.52 1009.97 1010.37 1010.74 1011.06 1011.36 1011.65 1011.94 1012.24 1012.56 1012.90 1013.26 1013.63 1013.99 1014.33 1014.65 1014.94 1015.22 1015.48 1015.75 1016.01 1016.28 1016.54 1016.79 1017.02 1017.24 1017.44 1017.62 1017.80 1017.99 1018.18 1018.40 1018.63 1018.88 1019.14 1019.41 1019.68 1019.95 1020.22 1020.49 1020.75 1020.99
1008.99 1009.47 1009.91 1010.33 1010.72 1011.08 1011.42 1011.74 1012.05 1012.34 1012.63 1012.92 1013.21 1013.50 1013.81 1014.11 1014.42 1014.74 1015.05 1015.37 1015.68 1015.99 1016.30 1016.60 1016.88 1017.15 1017.40 1017.63 1017.84 1018.02 1018.20 1018.35 1018.49 1018.63 1018.76 1018.91 1019.07 1019.25 1019.47 1019.73 1020.01 1020.30 1020.59
1008.86 1009.35 1009.81 1010.26 1010.70 1011.12 1011.52 1011.90 1012.23 1012.53 1012.78 1013.01 1013.23 1013.45 1013.68 1013.95 1014.24 1014.56 1014.91 1015.26 1015.62 1015.98 1016.32 1016.64 1016.94 1017.23 1017.50 1017.75 1017.97 1018.17 1018.34 1018.46 1018.56 1018.61 1018.65 1018.69 1018.75 1018.85 1019.01 1019.22 1019.49 1019.79 1020.11
1008.67 1009.17 1009.65 1010.15 1010.64 1011.14 1011.62 1012.06 1012.44 1012.74 1012.97 1013.15 1013.30 1013.44 1013.61 1013.82 1014.09 1014.41 1014.77 1015.16 1015.55 1015.93 1016.29 1016.62 1016.93 1017.22 1017.50 1017.76 1018.01 1018.22 1018.40 1018.52 1018.59 1018.60 1018.58 1018.55 1018.52 1018.54 1018.62 1018.77 1019.00 1019.28 1019.60
1008.41 1008.92 1009.44 1009.97 1010.54 1011.11 1011.67 1012.18 1012.60 1012.92 1013.15 1013.28 1013.37 1013.45 1013.56 1013.72 1013.96 1014.26 1014.63 1015.02 1015.43 1015.81 1016.17 1016.50 1016.80 1017.09 1017.37 1017.64 1017.91 1018.16 1018.36 1018.51 1018.59 1018.60 1018.56 1018.47 1018.39 1018.33 1018.33 1018.41 1018.58 1018.81 1019.10
1008.09 1008.61 1009.15 1009.73 1010.35 1010.99 1011.62 1012.19 1012.66 1013.01 1013.24 1013.35 1013.40 1013.43 1013.48 1013.60 1013.80 1014.08 1014.44 1014.82 1015.22 1015.60 1015.94 1016.25 1016.54 1016.81 1017.09 1017.38 1017.67 1017.96 1018.22 1018.42 1018.55 1018.59 1018.55 1018.46 1018.33 1018.22 1018.14 1018.14 1018.22 1018.39 1018.62
1007.70 1008.24 1008.79 1009.40 1010.06 1010.75 1011.43 1012.05 1012.57 1012.95 1013.19 1013.30 1013.33 1013.33 1013.34 1013.42 1013.59 1013.84 1014.16 1014.53 1014.90 1015.26 1015.57 1015.86 1016.12 1016.38 1016.65 1016.96 1017.28 1017.62 1017.94 1018.21 1018.41 1018.51 1018.51 1018.43 1018.29 1018.13 1018.00 1017.91 1017.91 1017.99 1018.14
1007.25 1007.79 1008.36 1008.98 1009.66 1010.38 1011.10 1011.76 1012.31 1012.73 1012.98 1013.10 1013.13 1013.11 1013.10 1013.15 1013.28 1013.50 1013.79 1014.12 1014.46 1014.79 1015.08 1015.33 1015.57 1015.82 1016.09 1016.40 1016.76 1017.15 1017.53 1017.87 1018.14 1018.31 1018.36 1018.32 1018.19 1018.01 1017.83 1017.68 1017.59 1017.57 1017.65
1006.72 1007.28 1007.86 1008.49 1009.18 1009.91 1010.64 1011.32 1011.90 1012.34 1012.62 1012.76 1012.79 1012.76 1012.74 1012.77 1012.87 1013.05 1013.31 1013.61 1013.91 1014.21 1014.47 1014.70 1014.93 1015.16 1015.43 1015.76 1016.13 1016.55 1016.98 1017.38 1017.71 1017.95 1018.06 1018.06 1017.96 1017.79 1017.58 1017.38 1017.23 1017.14 1017.13
Thickness
5805 5802 5797 5795 5794 5792 5791 5789 5787 5786 5784 5783 5782 5781 5780 5779 5778 5776 5775 5774 5773 5772 5771 5770 5769 5768 5767 5766 5764 5763 5761 5760 5759 5757 5755 5753 5752 5750 5749 5747 5746 5744 5742
5809 5802 5797 5795 5793 5791 5790 5788 5786 5784 5783 5781 5780 5779 5778 5777 5776 5775 5773 5772 5771 5770 5769 5768 5767 5765 5764 5763 5762 5761 5760 5758 5757 5756 5754 5751 5750 5749 5747 5746 5744 5742 5741
5810 5802 5797 5794 5792 5790 5789 5787 5785 5783 5782 5780 5778 5777 5776 5775 5774 5773 5772 5770 5769 5768 5767 5766 5764 5763 5762 5761 5761 5759 5758 5757 5756 5755 5754 5751 5748 5746 5745 5744 5742 5740 5739
5810 5803 5798 5794 5791 5790 5788 5786 5784 5782 5780 5778 5777 5775 5774 5773 5772 5771 5770 5769 5768 5766 5765 5764 5762 5761 5760 5760 5759 5758 5757 5756 5755 5755 5754 5751 5747 5744 5743 5742 5740 5739 5738
5811 5803 5796 5793 5790 5789 5787 5785 5783 5781 5779 5777 5775 5774 5773 5771 5770 5769 5768 5767 5766 5765 5763 5762 5761 5760 5759 5758 5758 5757 5757 5756 5755 5754 5752 5748 5745 5743 5742 5741 5739 5738 5736
5811 5803 5795 5792 5789 5787 5785 5783 5781 5779 5777 5776 5774 5773 5771 5770 5768 5767 5766 5765 5764 5763 5762 5760 5759 5758 5757 5757 5757 5756 5756 5756 5755 5753 5750 5747 5744 5742 5741 5739 5738 5736 5735
5811 5802 5794 5791 5788 5786 5784 5782 5780 5778 5776 5774 5773 5772 5770 5769 5767 5766 5765 5763 5762 5761 5760 5759 5758 5757 5756 5756 5756 5755 5755 5755 5755 5752 5749 5745 5742 5741 5739 5738 5737 5735 5734
5811 5802 5794 5789 5787 5784 5782 5780 5778 5777 5775 5773 5772 5770 5769 5767 5766 5764 5763 5762 5760 5759 5758 5757 5756 5755 5755 5755 5755 5754 5754 5755 5754 5751 5747 5743 5741 5740 5738 5737 5735 5734 5732
5811 5802 5795 5790 5786 5783 5781 5779 5777 5776 5774 5772 5770 5769 5768 5766 5765 5763 5761 5760 5759 5758 5757 5756 5755 5754 5754 5754 5754 5754 5754 5754 5754 5750 5746 5741 5739 5738 5737 5735 5734 5732 5731
5810 5803 5797 5792 5787 5784 5781 5778 5776 5774 5773 5771 5769 5768 5767 5765 5763 5762 5760 5759 5757 5756 5756 5755 5754 5753 5753 5753 5753 5754 5754 5754 5753 5749 5744 5740 5739 5737 5736 5734 5733 5731 5729
5808 5804 5800 5794 5789 5787 5783 5778 5775 5773 5771 5770 5768 5767 5766 5765 5763 5761 5760 5758 5757 5755 5755 5754 5753 5752 5752 5753 5753 5753 5754 5754 5752 5748 5743 5740 5738 5736 5735 5733 5731 5730 5728
5804 5803 5801 5796 5793 5790 5786 5779 5777 5775 5771 5771 5769 5767 5766 5766 5764 5762 5759 5757 5756 5755 5754 5753 5752 5752 5752 5753 5753 5753 5755 5755 5752 5746 5742 5739 5737 5735 5734 5732 5730 5729 5727
5806 5804 5802 5798 5795 5792 5787 5782 5780 5778 5773 5772 5770 5768 5767 5766 5764 5762 5759 5756 5755 5754 5754 5753 5752 5753 5754 5755 5755 5755 5756 5756 5752 5746 5741 5738 5737 5735 5733 5731 5729 5728 5726
5806 5803 5802 5798 5795 5792 5789 5785 5783 5780 5775 5774 5771 5769 5768 5767 5766 5764 5761 5759 5757 5757 5756 5755 5755 5755 5755 5756 5757 5756 5756 5755 5751 5745 5740 5738 5736 5734 5732 5730 5729 5727 5726
5805 5803 5801 5798 5794 5791 5788 5786 5785 5782 5778 5775 5772 5770 5769 5767 5766 5764 5762 5761 5760 5759 5757 5757 5757 5756 5755 5756 5756 5756 5755 5753 5749 5745 5739 5737 5735 5734 5732 5730 5728 5726 5725
5805 5803 5801 5797 5793 5790 5786 5784 5784 5782 5779 5776 5773 5771 5769 5768 5766 5763 5762 5761 5761 5759 5758 5757 5756 5755 5755 5755 5755 5754 5754 5752 5750 5745 5740 5737 5735 5734 5732 5730 5728 5726 5725
5808 5805 5800 5796 5792 5788 5785 5783 5783 5782 5779 5777 5774 5771 5769 5768 5765 5763 5762 5760 5760 5759 5758 5757 5756 5755 5754 5753 5753 5753 5753 5752 5749 5746 5742 5739 5736 5734 5732 5731 5729 5727 5726
5810 5804 5799 5797 5791 5786 5783 5782 5782 5782 5779 5777 5774 5771 5769 5767 5765 5763 5762 5760 5759 5758 5756 5755 5755 5753 5752 5752 5751 5751 5751 5750 5749 5747 5744 5742 5739 5736 5733 5732 5730 5728 5727
5811 5804 5798 5796 5790 5785 5782 5780 5781 5780 5779 5776 5773 5771 5768 5766 5764 5763 5762 5761 5759 5758 5756 5756 5754 5753 5750 5750 5750 5750 5750 5749 5748 5748 5746 5744 5742 5739 5736 5733 5732 5730 5728
5810 5804 5797 5794 5790 5785 5782 5779 5778 5778 5776 5775 5773 5771 5768 5765 5764 5762 5761 5760 5759 5757 5755 5755 5753 5752 5750 5749 5751 5749 5749 5748 5748 5748 5747 5746 5744 5741 5739 5736 5733 5731 5730
5807 5801 5796 5791 5788 5785 5780 5776 5773 5772 5773 5773 5773 5770 5767 5765 5763 5761 5761 5758 5758 5756 5754 5753 5752 5749 5748 5750 5746 5743 5745 5747 5747 5747 5747 5746 5745 5744 5742 5739 5736 5734 5732
5806 5801 5796 5791 5788 5785 5782 5778 5776 5775 5773 5773 5772 5769 5766 5764 5762 5761 5759 5758 5756 5755 5754 5753 5751 5748 5747 5749 5744 5738 5733 5736 5743 5749 5748 5746 5746 5745 5743 5742 5740 5738 5736
5806 5801 5798 5793 5789 5786 5783 5779 5776 5774 5771 5769 5767 5766 5765 5764 5762 5760 5759 5758 5756 5755 5752 5751 5751 5747 5744 5747 5748 5741 5732 5728 5735 5743 5747 5748 5748 5746 5745 5745 5742 5741 5738
5808 5805 5800 5794 5790 5786 5783 5779 5774 5770 5766 5766 5766 5765 5764 5762 5761 5760 5759 5757 5756 5755 5753 5751 5751 5749 5746 5743 5746 5748 5746 5743 5735 5732 5740 5745 5747 5747 5747 5747 5746 5744 5741
5811 5807 5802 5796 5790 5786 5783 5779 5775 5772 5769 5768 5766 5764 5762 5761 5760 5759 5758 5756 5755 5754 5754 5752 5752 5750 5748 5745 5745 5745 5745 5745 5744 5735 5731 5737 5743 5747 5749 5749 5748 5746 5744
5813 5808 5803 5796 5789 5786 5782 5779 5776 5772 5769 5766 5763 5761 5760 5759 5759 5758 5757 5756 5755 5754 5753 5752 5751 5749 5748 5747 5747 5746 5744 5742 5741 5739 5735 5735 5737 5744 5749 5751 5750 5749 5747